Location: �quirre
(50.4736°N, 2.2351°E)
Time: 06:40:56
(UTC+00:00)

Cosmos 1953 - Pass Details

Date: 07 August 2020
Orbit: 538 x 559 km, 82.5° (Epoch: 26 September)

Event Time Altitude Azimuth Distance (km) Brightness Sun altitude
Exits shadow 03:35:22 - 198° (SSW) 2,178 4.9 -7.9°
Reaches altitude 10° 03:36:14 10° 200° (SSW) 1,822 4.5 -7.8°
Maximum altitude 03:40:13 63° 282° (WNW) 620 2.4 -7.3°
Drops below altitude 10° 03:44:16 10° 5° (N) 1,849 5.6 -6.7°
Sets 03:46:28 0° 8° (N) 2,752 6.6 -6.5°
